DW3400 Frejlev DK current weather conditions

sailwx.info

Wind from 315 at 7 knots gusting 13

Air temperature 14.4° C
Dewpoint 10.8° C

Last reported at 2018-Oct-18 11:00 UTC.
Time now 2018-Oct-18 11:27 UTC

Location: N 54°42' E 011°46'.
View on Google Maps.

See reports from other nearby stations

  
Tides and Currents Weather Stations Pressure Air Temp Water Temp Dewpoint Dewpoint Depression Visibility Wind Speed Wind Dir Waves Ship Positions
date/time (UTC)wind fromknots sea level pressurealtimeterstation pressurevisibilityair tempwater tempwave heightnotes
2018-Oct-18 11:10 315 6 gusting 11 14.4
2018-Oct-18 11:00 315 7 gusting 13 14.4
2018-Oct-18 10:50 296 6 gusting 13 15.0
2018-Oct-18 10:45 315 6 gusting 11 15.0
2018-Oct-18 10:40 315 6 gusting 13 15.0
2018-Oct-18 10:30 312 7 gusting 13 15.0
2018-Oct-18 10:25 314 5 gusting 11 15.0
2018-Oct-18 10:10 290 6 gusting 11 14.4
2018-Oct-18 10:05 338 6 gusting 11 14.4
2018-Oct-18 09:55 315 7 gusting 14 14.4
2018-Oct-18 09:50 315 6 gusting 12 14.4
2018-Oct-18 09:45 315 6 gusting 14 14.4
2018-Oct-18 09:35 315 5 gusting 8 14.4
2018-Oct-18 09:30 315 5 gusting 12 14.4
2018-Oct-18 09:20 357 5 gusting 11 14.4
2018-Oct-18 09:15 315 4 gusting 8 15.0
2018-Oct-18 09:05 315 2 gusting 6 14.4
2018-Oct-18 09:00 315 2 gusting 6 14.4
2018-Oct-18 08:55 357 4 gusting 12 14.4
2018-Oct-18 08:50 313 5 gusting 8 14.4
2018-Oct-18 08:40 273 4 gusting 11 14.4
2018-Oct-18 08:30 274 5 gusting 11 14.4
2018-Oct-18 08:25 313 6 gusting 11 13.9
2018-Oct-18 08:20 313 5 gusting 8 13.9
2018-Oct-18 08:10 270 4 gusting 6 13.9
2018-Oct-18 08:05 315 4 gusting 6 13.9
2018-Oct-18 08:00 315 4 gusting 7 13.9
2018-Oct-18 07:55 293 4 gusting 8 13.9
2018-Oct-18 07:45 293 2 gusting 6 13.9
2018-Oct-18 07:40 315 3 gusting 6 13.9
2018-Oct-18 07:35 315 2 gusting 6 13.9
2018-Oct-18 07:30 270 2 gusting 6 13.9
2018-Oct-18 07:15 292 2 gusting 6 13.9
2018-Oct-18 07:10 294 2 gusting 6 13.9
2018-Oct-18 07:05 292 2 gusting 6 13.9
2018-Oct-18 07:00 315 2 gusting 6 13.9
2018-Oct-18 06:55 294 5 gusting 8 13.9
2018-Oct-18 06:50 274 2 gusting 10 13.9
2018-Oct-18 06:45 318 4 gusting 8 13.9
2018-Oct-18 06:40 270 5 gusting 8 13.9
2018-Oct-18 06:25 315 4 gusting 8 13.9
2018-Oct-18 06:20 294 4 gusting 8 13.9
2018-Oct-18 06:10 315 3 gusting 7 13.9
2018-Oct-18 06:05 315 5 gusting 7 13.9
2018-Oct-18 06:00 315 4 gusting 7 13.9
2018-Oct-18 05:50 315 5 gusting 7 13.9
2018-Oct-18 05:45 314 4 gusting 11 13.9
2018-Oct-18 05:40 270 4 gusting 11 13.9
2018-Oct-18 05:35 13.9
2018-Oct-18 05:30 315 6 gusting 12 13.9
2018-Oct-18 05:25 312 5 gusting 10 13.9
2018-Oct-18 05:20 315 4 gusting 7 13.9
2018-Oct-18 05:15 315 4 gusting 7 13.9
2018-Oct-18 05:10 13.9
2018-Oct-18 05:05 13.9
2018-Oct-18 05:00 315 2 gusting 6 13.9
2018-Oct-18 04:55 315 3 gusting 6 13.9
2018-Oct-18 04:50 273 2 gusting 6 13.9
2018-Oct-18 04:45 312 2 gusting 6 13.9
2018-Oct-18 04:40 315 2 gusting 8 13.9
2018-Oct-18 04:35 274 2 gusting 5 13.9
2018-Oct-18 04:30 292 2 gusting 6 13.9
2018-Oct-18 04:25 294 2 gusting 5 13.9
2018-Oct-18 04:20 293 2 gusting 5 13.9
2018-Oct-18 04:15 315 0 gusting 5 13.3
2018-Oct-18 04:05 315 1 gusting 5 13.3
2018-Oct-18 03:55 315 2 gusting 6 13.3
2018-Oct-18 03:50 315 3 gusting 6 13.3
2018-Oct-18 03:45 311 2 gusting 5 13.3
2018-Oct-18 03:35 322 2 gusting 6 13.3
2018-Oct-18 03:30 311 2 gusting 6 13.3
2018-Oct-18 03:25 270 2 gusting 5 13.3
2018-Oct-18 03:20 314 2 gusting 5 13.3
2018-Oct-18 03:15 315 2 gusting 7 13.3
2018-Oct-18 03:10 270 2 gusting 6 13.3
2018-Oct-18 03:05 270 2 gusting 5 13.3
2018-Oct-18 03:00 312 2 gusting 6 13.3
2018-Oct-18 02:55 315 2 gusting 6 13.3
2018-Oct-18 02:50 315 2 gusting 6 12.8
2018-Oct-18 02:45 273 2 gusting 6 12.8
2018-Oct-18 02:40 357 2 gusting 5 12.8
2018-Oct-18 02:35 315 1 gusting 5 12.8
2018-Oct-18 02:30 355 4 gusting 6 12.8
2018-Oct-18 02:25 319 2 gusting 8 12.8
2018-Oct-18 02:20 315 3 gusting 7 12.8
2018-Oct-18 02:15 315 2 gusting 6 12.8
2018-Oct-18 02:05 315 2 gusting 5 12.2
2018-Oct-18 02:00 315 1 gusting 6 12.2
2018-Oct-18 01:55 294 2 gusting 6 12.2
2018-Oct-18 01:45 231 2 gusting 6 11.7
2018-Oct-18 01:40 313 2 gusting 5 11.1
2018-Oct-18 01:30 275 1 gusting 5 10.6
2018-Oct-18 01:25 315 1 gusting 2 10.0
2018-Oct-18 01:20 315 0 gusting 1 10.0
2018-Oct-18 01:10 314 0 gusting 1 9.4
2018-Oct-18 01:05 292 0 gusting 1 9.4
2018-Oct-18 00:55 230 0 gusting 1 9.4
2018-Oct-18 00:50 315 9.4
2018-Oct-18 00:40 315 9.4
2018-Oct-18 00:35 270 0 gusting 0 9.4
2018-Oct-18 00:30 270 0 gusting 2 8.9
2018-Oct-18 00:25 270 0 gusting 1 8.9
2018-Oct-18 00:20 270 0 gusting 0 9.4
2018-Oct-18 00:15 270 0 gusting 0 9.4
2018-Oct-18 00:10 270 0 gusting 0 9.4
2018-Oct-18 00:05 270 9.4
2018-Oct-18 00:00 270 9.4
2018-Oct-17 23:50 270 9.4
2018-Oct-17 23:30 270 0 gusting 1 9.4
2018-Oct-17 23:20 270 10.0
2018-Oct-17 23:10 270 10.0
2018-Oct-17 23:05 270 10.0
2018-Oct-17 23:00 270 10.0
2018-Oct-17 22:55 270 10.0
2018-Oct-17 22:45 270 10.0
2018-Oct-17 22:40 270 0 gusting 0 10.6
2018-Oct-17 22:35 270 10.6
2018-Oct-17 22:30 270 0 gusting 1 10.6
2018-Oct-17 22:25 270 10.6
2018-Oct-17 22:20 270 10.6
2018-Oct-17 22:10 270 0 gusting 1 10.6
2018-Oct-17 22:05 315 0 gusting 1 10.6
2018-Oct-17 21:50 315 10.6
2018-Oct-17 21:45 315 10.0
2018-Oct-17 21:40 314 0 gusting 1 10.6
2018-Oct-17 21:25 090 10.6
2018-Oct-17 21:10 090 10.6
2018-Oct-17 21:00 090 10.6
2018-Oct-17 20:55 090 10.6
2018-Oct-17 20:50 090 10.6
2018-Oct-17 20:45 090 11.1
2018-Oct-17 20:40 090 11.1
2018-Oct-17 20:30 090 11.1
2018-Oct-17 20:20 090 11.1
2018-Oct-17 20:15 090 11.1
2018-Oct-17 20:10 090 11.7
2018-Oct-17 20:05 090 11.7
2018-Oct-17 19:55 090 11.7
2018-Oct-17 19:50 090 11.7
2018-Oct-17 19:45 090 12.2
2018-Oct-17 19:40 090 12.2
2018-Oct-17 19:35 090 12.2
2018-Oct-17 19:30 090 12.2
2018-Oct-17 19:25 090 12.2
2018-Oct-17 19:20 090 12.2
2018-Oct-17 19:15 090 12.2
2018-Oct-17 19:05 090 12.8
2018-Oct-17 19:00 090 12.8
2018-Oct-17 18:50 090 12.8
2018-Oct-17 18:45 090 12.8
2018-Oct-17 18:40 090 13.3
2018-Oct-17 18:35 090 13.3
2018-Oct-17 18:25 090 13.3
2018-Oct-17 18:20 090 13.3
2018-Oct-17 18:15 090 13.3
2018-Oct-17 18:10 090 13.3
2018-Oct-17 18:05 090 13.9
2018-Oct-17 18:00 090 13.9
2018-Oct-17 17:55 093 13.9
2018-Oct-17 17:40 180 14.4
2018-Oct-17 17:35 180 14.4
2018-Oct-17 17:30 180 14.4
2018-Oct-17 17:20 180 14.4
2018-Oct-17 17:15 180 15.0
2018-Oct-17 17:10 180 15.0
2018-Oct-17 17:05 180 15.0
2018-Oct-17 16:55 180 15.6
2018-Oct-17 16:50 180 15.6
2018-Oct-17 16:45 180 15.6
2018-Oct-17 16:40 180 15.6
2018-Oct-17 16:35 180 16.1
2018-Oct-17 16:30 180 16.1
2018-Oct-17 16:20 180 0 gusting 1 16.7
2018-Oct-17 16:15 225 16.7
2018-Oct-17 16:10 180 17.2
2018-Oct-17 16:05 180 17.8
2018-Oct-17 16:00 180 17.8
2018-Oct-17 15:50 180 18.3
2018-Oct-17 15:45 180 18.3
2018-Oct-17 15:35 135 0 gusting 2 18.3
2018-Oct-17 15:30 180 0 gusting 2 18.9
2018-Oct-17 15:20 140 0 gusting 2 18.9
2018-Oct-17 15:15 180 1 gusting 2 18.9
2018-Oct-17 15:10 183 0 gusting 2 18.9
2018-Oct-17 15:05 180 18.9
2018-Oct-17 14:55 222 0 gusting 1 18.9
2018-Oct-17 14:50 181 0 gusting 1 18.9
2018-Oct-17 14:40 182 0 gusting 2 18.9
2018-Oct-17 14:35 181 0 gusting 2 18.9
2018-Oct-17 14:30 177 0 gusting 1 18.9
2018-Oct-17 14:25 142 0 gusting 2 18.9
2018-Oct-17 14:15 185 0 gusting 2 18.9
2018-Oct-17 14:05 180 0 gusting 1 18.9
2018-Oct-17 14:00 180 0 gusting 1 18.9
2018-Oct-17 13:55 180 0 gusting 2 18.9
2018-Oct-17 13:50 180 0 gusting 2 18.9
2018-Oct-17 13:45 225 0 gusting 2 18.9
2018-Oct-17 13:40 136 0 gusting 2 18.9
2018-Oct-17 13:35 135 0 gusting 2 18.9
2018-Oct-17 13:30 180 0 gusting 2 18.9
2018-Oct-17 13:25 174 0 gusting 2 18.9
2018-Oct-17 13:20 180 0 gusting 2 18.9
2018-Oct-17 13:15 180 18.9
2018-Oct-17 13:10 180 0 gusting 2 18.9
2018-Oct-17 13:05 180 0 gusting 2 18.9
2018-Oct-17 12:50 139 1 gusting 2 18.9
2018-Oct-17 12:45 135 1 gusting 2 18.9
2018-Oct-17 12:30 180 0 gusting 1 18.9
2018-Oct-17 12:25 180 0 gusting 2 18.9
2018-Oct-17 12:20 135 0 gusting 2 18.9
2018-Oct-17 12:10 137 0 gusting 2 18.9
2018-Oct-17 12:05 180 0 gusting 2 18.9
2018-Oct-17 12:00 136 0 gusting 2 18.9
2018-Oct-17 11:45 180 0 gusting 5 18.9
2018-Oct-17 11:35 223 2 gusting 5 18.3
2018-Oct-17 11:25 180 1 gusting 5 18.3
2018-Oct-17 11:10 223 2 gusting 5 18.3
2018-Oct-17 11:05 225 4 gusting 5 18.3
2018-Oct-17 10:55 180 2 gusting 6 18.3
2018-Oct-17 10:35 159 0 gusting 6 17.8
2018-Oct-17 10:30 180 2 gusting 6 17.8
2018-Oct-17 10:25 135 0 gusting 6 17.2
2018-Oct-17 10:15 157 0 gusting 2 17.2
2018-Oct-17 10:05 135 0 gusting 2 16.7
2018-Oct-17 09:45 113 0 gusting 5 16.7
2018-Oct-17 09:30 180 1 gusting 6 16.1
2018-Oct-17 09:25 223 1 gusting 4 16.1
2018-Oct-17 09:20 177 0 gusting 2 15.6
2018-Oct-17 09:15 135 0 gusting 4 15.6
2018-Oct-17 09:00 177 0 gusting 2 15.0
2018-Oct-17 08:55 136 0 gusting 2 15.0
2018-Oct-17 08:50 176 0 gusting 2 15.0
2018-Oct-17 08:40 135 0 gusting 2 14.4
2018-Oct-17 08:25 135 13.3
2018-Oct-17 08:15 135 0 gusting 1 12.8
2018-Oct-17 08:10 133 12.8
2018-Oct-17 08:05 045 12.2
2018-Oct-17 08:00 090 12.2
2018-Oct-17 07:55 045 11.7
2018-Oct-17 07:50 045 11.7
2018-Oct-17 07:45 045 0 gusting 0 11.1
2018-Oct-17 07:35 045 11.1
2018-Oct-17 07:30 045 10.6
2018-Oct-17 07:25 049 10.6
2018-Oct-17 07:20 135 0 gusting 0 10.6
2018-Oct-17 07:15 315 10.0
2018-Oct-17 07:00 315 10.0
2018-Oct-17 06:45 315 9.4
2018-Oct-17 06:35 315 9.4
2018-Oct-17 06:30 315 9.4
2018-Oct-17 06:25 315 9.4
2018-Oct-17 06:10 315 9.4
2018-Oct-17 05:55 315 9.4
2018-Oct-17 05:50 315 9.4
2018-Oct-17 05:45 315 9.4
2018-Oct-17 05:40 315 9.4
2018-Oct-17 05:35 315 0 gusting 1 9.4
2018-Oct-17 05:30 315 9.4
2018-Oct-17 05:15 315 10.0
2018-Oct-17 05:10 315 10.0
2018-Oct-17 05:05 315 10.0
2018-Oct-17 05:00 315 10.0
2018-Oct-17 04:55 315 10.0
2018-Oct-17 04:50 315 10.0
2018-Oct-17 04:45 315 10.0
2018-Oct-17 04:35 315 10.0
2018-Oct-17 04:25 315 10.0
2018-Oct-17 04:20 315 10.0
2018-Oct-17 04:15 315 10.0
2018-Oct-17 04:10 315 10.0
2018-Oct-17 04:05 315 10.0
2018-Oct-17 04:00 315 10.0
2018-Oct-17 03:55 315 10.0
2018-Oct-17 03:45 315 10.0
2018-Oct-17 03:35 315 10.0
2018-Oct-17 03:25 315 10.0
2018-Oct-17 03:15 315 10.0
2018-Oct-17 03:10 315 10.0
2018-Oct-17 03:00 315 10.0
2018-Oct-17 02:55 315 10.0
2018-Oct-17 02:45 315 10.0
2018-Oct-17 02:20 315 10.0
2018-Oct-17 02:10 315 9.4
2018-Oct-17 01:55 315 9.4
2018-Oct-17 01:50 315 9.4
2018-Oct-17 01:45 315 9.4
2018-Oct-17 01:35 315 0 gusting 1 10.0
2018-Oct-17 01:30 315 10.0
2018-Oct-17 01:20 315 10.0
2018-Oct-17 01:15 315 10.0
2018-Oct-17 01:10 315 10.0
2018-Oct-17 01:00 315 10.0
2018-Oct-17 00:55 315 10.6
2018-Oct-17 00:45 315 10.6
2018-Oct-17 00:40 315 10.6
2018-Oct-17 00:35 315 10.6
2018-Oct-17 00:30 315 10.6
2018-Oct-17 00:20 315 10.6
2018-Oct-16 23:45 315 10.6
2018-Oct-16 23:40 315 10.6
2018-Oct-16 23:35 315 10.6
2018-Oct-16 23:30 315 10.6
2018-Oct-16 23:25 315 10.6
2018-Oct-16 23:05 315 0 gusting 0 10.6
2018-Oct-16 23:00 315 10.6
2018-Oct-16 22:50 312 0 gusting 0 10.6
2018-Oct-16 22:45 270 0 gusting 0 11.1
2018-Oct-16 22:40 225 11.1
2018-Oct-16 22:30 225 11.1
2018-Oct-16 22:25 225 11.1
2018-Oct-16 22:20 225 11.7
2018-Oct-16 22:15 180 11.7
2018-Oct-16 22:10 180 11.7
2018-Oct-16 22:05 180 11.7
2018-Oct-16 22:00 180 0 gusting 0 11.7
2018-Oct-16 21:55 270 11.7
2018-Oct-16 21:50 270 11.7
2018-Oct-16 21:45 270 11.7
2018-Oct-16 21:40 270 11.7
2018-Oct-16 21:25 270 12.2
2018-Oct-16 21:20 270 12.2
2018-Oct-16 21:15 270 12.2
2018-Oct-16 21:10 270 12.2
2018-Oct-16 21:05 270 12.2
2018-Oct-16 21:00 270 12.2
2018-Oct-16 20:55 270 12.2
2018-Oct-16 20:40 270 12.2
2018-Oct-16 20:30 270 12.8
2018-Oct-16 20:20 270 12.8
2018-Oct-16 20:10 270 12.8
2018-Oct-16 19:55 270 12.8
2018-Oct-16 19:50 270 12.8
2018-Oct-16 19:40 270 12.8
2018-Oct-16 19:35 270 12.8
2018-Oct-16 19:30 270 12.8
2018-Oct-16 19:25 315 12.8
2018-Oct-16 19:20 315 12.8
2018-Oct-16 19:15 315 12.8
2018-Oct-16 19:10 315 12.8
2018-Oct-16 19:00 315 12.8
2018-Oct-16 18:55 315 12.8
2018-Oct-16 18:45 315 12.8
2018-Oct-16 18:30 315 0 gusting 0 13.3
2018-Oct-16 18:20 315 13.3
2018-Oct-16 18:15 315 13.3
2018-Oct-16 18:10 315 13.3
2018-Oct-16 18:05 270 13.3
2018-Oct-16 17:55 270 13.9
2018-Oct-16 17:35 225 14.4
2018-Oct-16 17:30 225 15.0
2018-Oct-16 17:20 225 15.0
2018-Oct-16 17:15 225 15.0
2018-Oct-16 17:10 225 15.6
2018-Oct-16 17:05 225 15.6
2018-Oct-16 17:00 225 15.6
2018-Oct-16 16:55 225 16.1
2018-Oct-16 16:50 225 16.1
2018-Oct-16 16:30 225 0 gusting 1 16.7
2018-Oct-16 16:25 180 16.7
2018-Oct-16 16:20 180 16.7
2018-Oct-16 16:10 180 0 gusting 2 17.2
2018-Oct-16 16:00 180 0 gusting 0 17.8
2018-Oct-16 15:55 180 0 gusting 1 17.8
2018-Oct-16 15:50 180 17.8
2018-Oct-16 15:40 222 1 gusting 5 18.3
2018-Oct-16 15:35 222 1 gusting 5 18.3
2018-Oct-16 15:30 181 1 gusting 5 18.3
2018-Oct-16 15:25 177 18.3
2018-Oct-16 15:20 175 0 gusting 4 18.9
2018-Oct-16 15:15 202 1 gusting 5 18.9
2018-Oct-16 15:05 135 0 gusting 2 19.4
2018-Oct-16 15:00 140 0 gusting 5 19.4
2018-Oct-16 14:55 181 1 gusting 5 19.4
2018-Oct-16 14:45 180 2 gusting 5 20.0
2018-Oct-16 14:40 183 2 gusting 5 20.0
2018-Oct-16 14:35 180 2 gusting 6 20.0
2018-Oct-16 14:30 180 4 gusting 6 20.0
2018-Oct-16 14:25 180 1 gusting 5 20.0
2018-Oct-16 14:15 181 1 gusting 2 20.0
2018-Oct-16 14:05 202 0 gusting 2 20.6
2018-Oct-16 14:00 272 0 gusting 4 20.6
2018-Oct-16 13:55 221 1 gusting 6 20.6
2018-Oct-16 13:50 177 2 gusting 6 20.6
2018-Oct-16 13:45 180 4 gusting 6 21.1
2018-Oct-16 13:40 223 3 gusting 6 21.1
2018-Oct-16 13:35 180 3 gusting 6 21.1
2018-Oct-16 13:30 180 1 gusting 5 21.1
2018-Oct-16 13:25 180 1 gusting 6 21.7
2018-Oct-16 13:15 184 3 gusting 6 21.7
2018-Oct-16 13:00 201 5 gusting 6 21.7
2018-Oct-16 12:50 179 2 gusting 6 21.7
2018-Oct-16 12:45 180 3 gusting 6 21.7
2018-Oct-16 12:40 177 2 gusting 6 21.7
2018-Oct-16 12:35 222 2 gusting 7 21.7
2018-Oct-16 12:30 180 2 gusting 6 21.7
2018-Oct-16 12:25 260 1 gusting 5 21.7
2018-Oct-16 12:20 227 1 gusting 5 21.7
2018-Oct-16 12:05 270 0 gusting 4 21.1
2018-Oct-16 12:00 269 1 gusting 4 21.1
2018-Oct-16 11:55 184 0 gusting 2 21.1
2018-Oct-16 11:45 223 0 gusting 4 21.1
2018-Oct-16 11:40 184 1 gusting 5 21.1
2018-Oct-16 11:35 225 0 gusting 5 21.1
2018-Oct-16 11:30 218 1 gusting 5 21.1
2018-Oct-16 11:15 180 1 gusting 5 20.6
2018-Oct-16 11:05 225 20.6
2018-Oct-16 11:00 223 0 gusting 1 20.6